Location: Home
(42.5358°N, 72.7383°W)
Time: 08:16:36
(UTC-05:00)

Transit 2A Rocket - Pass Details

Date: 29 November 2021
Orbit: 584 x 917 km, 66.7° (Epoch: 23 January)

Event Time Altitude Azimuth Distance (km) Brightness Sun altitude
Rises 16:52:19 0° 331° (NNW) 3,563 8.5 -6.3°
Reaches altitude 10° 16:54:56 10° 335° (NNW) 2,610 7.8 -6.7°
Maximum altitude 17:00:59 59° 55° (NE) 1,018 5.4 -7.7°
Drops below altitude 10° 17:06:40 10° 135° (SE) 2,464 7.4 -8.7°
Sets 17:09:04 0° 139° (SE) 3,351 8.1 -9.1°
